Location: *
(42.5442°S, 106.4002°E)
Time: 10:14:26
(UTC+00:00)

Daily predictions for brighter satellites

Satellite Brightness Start Highest point End
(mag) Time Altitude Azimuth Time Altitude Azimuth Time Altitude Azimuth
USA 267 3.4 12:45:24 10° NE 12:52:01 88° NW 12:58:39 10° SW
SME Rocket 2.9 12:50:12 10° SSE 12:54:21 80° ENE 12:58:06 10° NNW
PAYLOAD B 4.4 12:48:54 10° SSE 12:54:24 57° E 12:59:49 10° N
MINOTAUR 4 R/B 4.0 12:52:14 10° NNE 12:55:27 60° ESE 12:58:43 10° S
Cosmos 1500 Rocket 4.2 12:52:57 10° NNW 12:57:22 64° W 13:01:49 10° S
USA 290 3.4 12:54:28 10° SW 12:57:33 42° WNW 13:00:36 10° N
Lacrosse 5 rocket 3.6 12:57:12 10° S 12:58:59 13° SSE 13:00:46 10° SE
Cosmos 1763 Rocket 4.1 12:54:53 10° SSW 12:59:56 58° WNW 13:04:58 10° N
Cosmos 1833 Rocket 3.9 12:55:50 10° NNE 12:59:58 21° E 13:04:08 10° SE
Cosmos 540 Rocket 3.6 12:56:09 10° SSW 13:01:20 83° WNW 13:06:27 10° NNE
ISS -2.7 12:58:50 10° NNW 13:01:44 26° NE 13:04:40 10° ESE
Cosmos 2315 Rocket 4.2 12:56:58 10° N 13:03:16 84° W 13:09:44 10° S
Cosmos 1626 2.4 13:00:37 10° SSW 13:04:05 62° W 13:07:29 10° N
Cosmos 1726 2.4 13:03:13 10° NNE 13:06:26 41° E 13:09:43 10° SSE
USA 186 2.5 13:03:13 10° SSE 13:06:26 38° E 13:09:39 10° NNE
Cosmos 1975 4.1 13:04:14 10° NE 13:07:20 22° E 13:10:28 10° SE
Cosmos 468 Rocket 4.4 13:05:33 10° SSW 13:10:44 66° WNW 13:15:55 10° N
In-Cosmos 22 4.2 13:06:00 10° S 13:11:20 61° ESE 13:16:35 10° NNE
Meteor 1-11 Rocket 3.9 13:05:50 10° NNW 13:11:29 81° W 13:17:20 10° S
ATLAS 2AS CENTAUR R/B 3.2 13:05:46 10° N 13:11:32 34° ENE 13:17:31 10° SE
USA 305 3.0 13:09:30 10° N 13:11:47 21° NE 13:13:53 10° E
Cosmos 1633 Rocket 3.6 13:09:05 10° NNE 13:13:11 40° E 13:17:21 10° SSE
Lacrosse 4 Rocket 4.2 13:10:05 10° WNW 13:13:18 23° SW 13:16:33 10° S
KORONAS-FOTON 3.8 13:09:58 10° S 13:13:50 77° E 13:17:38 10° NNE
Cosmos 841 Rocket 3.6 13:09:27 10° SSW 13:14:39 64° ESE 13:19:45 10° NNE
Cosmos 2074 Rocket 4.5 13:08:35 10° S 13:14:40 46° ESE 13:20:41 10° NNE
PSLV R/B 3.6 13:13:05 10° SSE 13:16:50 64° ENE 13:20:27 10° N
Resurs 01 Rocket 2.5 13:12:55 10° SSE 13:16:55 30° E 13:20:48 10° NNE
CSL-04 Rocket 4.2 13:12:24 10° SSE 13:17:38 40° E 13:22:51 10° NNE
Landsat 5 3.7 13:14:01 10° N 13:18:09 68° WNW 13:22:12 10° SSW
Okean-O 3.9 13:15:31 10° SE 13:19:05 23° E 13:22:16 12° NE
Meteor 2-9 Rocket 4.3 13:15:45 10° N 13:21:33 83° E 13:27:31 10° SSE
Cosmos 1470 Rocket 4.4 13:20:27 10° NNE 13:24:27 33° E 13:28:31 10° SSE
Feng Yun 1-1 Rocket 4.2 13:21:25 10° SSE 13:26:51 61° ENE 13:32:12 10° N
Cosmos 1340 Rocket 3.3 13:26:28 10° SSW 13:30:27 59° W 13:34:19 10° N
BREEZE M DEB (TANK) 4.5 13:22:04 10° NNW 13:31:49 35° NNE 13:35:20 10° E
SPOT 1/Viking Rocket 3.6 13:27:21 10° SSE 13:32:35 68° ENE 13:37:46 10° N
USA 307 1.8 13:32:40 10° NW 13:35:28 49° NE 13:38:01 10° ESE
Cosmos 1656 3.7 13:34:32 10° SSW 13:40:03 71° ESE 13:44:26 16° NNE
ADEOS Rocket 2.9 13:34:11 10° SSE 13:40:31 85° ENE 13:46:14 10° NNW
Meteor 2-10 4.2 13:35:10 10° N 13:40:51 79° E 13:46:27 10° SSE
RESURS DK-1 3.7 13:37:54 10° NW 13:41:50 43° WSW 13:45:48 10° SSE
Cosmos 1707 3.5 13:38:30 10° SSW 13:42:10 48° W 13:45:46 10° NNW
CSL-04 Debris 4.1 13:38:44 10° SSE 13:44:12 75° ENE 13:49:37 10° N
Meteor 1-21 4.4 13:40:51 10° S 13:46:42 66° ESE 13:51:21 16° NNE
BREEZE-M DEB (TANK) 4.0 13:43:50 10° NW 13:47:50 73° NNE 13:59:48 10° ESE
Cosmos 1666 Rocket 4.0 13:45:53 10° NNW 13:50:18 64° W 13:54:46 10° S
Cosmos 2082 Rocket 3.7 13:49:00 15° ENE 13:50:37 17° E 13:54:14 10° ESE
ATLAS CENTAUR R/B 3.9 13:48:18 10° S 13:50:59 15° SE 13:53:38 10° ESE
USA 306 2.5 13:49:31 10° WNW 13:52:11 57° SW 13:55:11 10° SE
Tiangong -1.4 13:50:43 10° NW 13:53:37 32° NNE 13:54:39 26° ENE
Okean O Rocket 1.9 13:49:44 10° S 13:54:11 70° WSW 13:58:32 10° NNW
Cosmos 2184 Rocket 4.1 13:49:27 10° S 13:55:54 89° ESE 14:01:32 13° N
Cosmos 1707 Rocket 4.3 13:53:15 10° SSW 13:57:41 54° W 14:01:57 10° N
SPOT 5 4.0 13:55:04 10° SE 13:58:50 24° E 14:00:25 20° ENE
Cosmos 1933 Rocket 4.1 13:56:28 21° NNE 13:58:54 40° E 14:03:02 10° SSE
Landsat 4 3.8 13:57:28 10° S 14:01:05 69° WSW 14:04:39 10° NNW
ATLAS 3B R/B 3.9 13:56:30 10° SSW 14:01:59 29° SE 14:07:23 10° E
CZ-4 R/B 3.8 14:01:04 10° SSW 14:04:23 24° WSW 14:07:42 10° WNW
Cosmos 1766 4.1 14:05:12 26° NE 14:06:23 32° E 14:09:48 10° SSE
Cosmos 1697 Rocket 3.1 14:01:50 10° SSW 14:07:25 51° ESE 14:10:55 22° NE
CARTOSAT-1 3.5 14:04:37 10° SSE 14:09:01 90° WNW 14:12:50 13° NNW
Okean 3 3.4 14:05:11 10° S 14:09:27 89° W 14:12:04 23° N
Cosmos 1610 Rocket 4.5 14:04:53 10° S 14:11:14 76° E 14:15:35 21° NNE
Cosmos 1703 Rocket 3.9 14:07:30 10° S 14:11:58 53° ESE 14:14:10 27° NE
Cosmos 44 Rocket 4.3 14:12:13 24° ENE 14:12:40 24° ENE 14:16:26 10° ESE
Okean 1-7 3.0 14:11:47 10° S 14:16:14 80° E 14:18:36 27° NNE
SJ 16-02 1.3 14:23:07 23° N 14:25:46 70° ENE 14:30:11 10° SSE
USA 245 4.4 14:27:39 10° SSE 14:31:45 39° E 14:33:09 31° NE
Cosmos 968 Rocket 4.4 14:29:50 10° NW 14:34:56 50° WSW 14:40:05 10° S
H-2A R/B 2.7 14:34:46 32° ENE 14:36:19 45° ESE 14:40:36 10° S
Lacrosse 5 rocket 1.5 14:34:41 10° SW 14:38:15 53° SE 14:39:22 36° E
ISS -2.5 14:35:04 10° W 14:38:21 44° SSW 14:41:39 10° SE
Cosmos 2366 rocket 4.4 14:32:33 10° S 14:38:35 49° ESE 14:41:27 29° NE
Cosmos 1980 Rocket 2.8 14:36:43 10° SSW 14:42:16 48° ESE 14:45:01 27° ENE
Cosmos 1833 Rocket 3.3 14:37:53 10° NW 14:43:26 56° WSW 14:49:01 10° SSE
Okean 2 3.3 14:39:40 10° S 14:43:47 80° W 14:45:10 40° N
USA 305 3.9 14:44:02 10° W 14:46:21 26° SSW 14:48:25 10° SSE
Cosmos 2181 Rocket 4.2 14:46:55 31° NNE 14:49:55 57° E 14:56:08 10° SSE
Cosmos 1869 Rocket 3.4 14:48:29 40° N 14:50:01 81° E 14:54:25 10° S
SPOT 3 Rocket 4.0 14:46:03 10° SSE 14:51:04 43° E 14:52:27 36° NE
SL-16 R/B 4.4 14:47:33 10° S 14:51:12 17° SE 14:54:49 10° E
Resurs 01 Rocket 3.7 14:49:30 10° S 14:53:14 26° WSW 14:56:55 10° WNW
Terra 2.1 14:49:15 10° SSE 14:53:54 47° E 14:54:57 40° NE
Cosmos 389 Rocket 3.5 14:52:24 10° SSW 14:55:05 30° W 14:55:29 28° WNW
Okean-O 4.1 14:51:28 10° S 14:55:33 35° WSW 14:59:36 10° NW
IRS-1C Rocket 4.5 14:54:51 10° S 15:00:08 63° WSW 15:03:56 19° NNW
ATLAS 2AS CENTAUR R/B 3.5 14:55:42 10° WNW 15:02:08 52° SW 15:08:55 10° SSE
Cosmos 2341 Rocket 4.0 14:58:24 10° S 15:04:50 83° W 15:07:57 33° N
MetOp-A 4.2 15:00:46 10° SSE 15:06:01 56° E 15:07:21 43° NNE
IRS-1A Rocket 4.4 15:01:31 10° SSE 15:07:21 78° WSW 15:10:57 25° NNW
Spot 2 Rocket 3.5 15:03:39 10° SSE 15:08:48 64° ENE 15:10:17 44° NNE
Cosmos 2242 Rocket 3.6 15:04:25 10° S 15:09:05 86° W 15:10:17 50° N
ASTEX 1 4.3 15:08:10 31° ENE 15:09:24 35° ESE 15:13:57 10° SSE
Orbus 7S? 3.7 15:08:18 10° SW 15:12:41 42° NW 15:12:41 42° NW
Cosmos 2218 Rocket 3.9 15:07:30 10° S 15:13:47 88° E 15:16:21 38° N
Cosmos 2369 3.8 15:08:21 10° SSW 15:14:05 71° ESE 15:16:05 41° NE
Ariane Rocket 2.9 15:13:09 10° SSE 15:18:21 89° WSW 15:20:12 41° NNW
GEOS 3 Rocket 3.9 15:17:05 34° ENE 15:19:06 58° SE 15:24:05 10° SSW
Cosmos 1354 Rocket 4.5 15:20:49 40° ENE 15:21:22 42° ENE 15:26:19 10° SSE
SL-8 R/B 3.6 15:17:05 10° NW 15:21:55 76° NNE 15:26:48 10° ESE
Cosmos 1470 3.0 15:21:47 54° NW 15:22:23 64° W 15:26:18 10° S
Nadezhda 3 Rocket 4.5 15:22:26 37° NE 15:24:22 47° E 15:30:27 10° SSE
Iridium 2 3.7 15:21:08 10° S 15:24:03 62° SSE 15:24:03 62° SSE
DNEPR-1 R/B 4.3 15:26:42 37° E 15:26:42 37° E 15:29:51 10° SE
SL-24 R/B 3.6 15:23:18 10° S 15:27:13 84° WSW 15:27:24 79° NW
BREEZE-M DEB (TANK) 4.3 15:21:26 10° W 15:27:20 32° SSW 15:29:52 10° SE
Cosmos 2208 Rocket 4.3 15:22:36 10° SSW 15:27:59 63° WNW 15:29:33 44° NNW
COSMOS 2406 3.3 15:26:16 30° NNW 15:29:15 80° WSW 15:35:06 10° SSE
CRYOSAT 2 4.4 15:24:17 10° S 15:29:16 79° W 15:30:38 48° NNW
ATLAS CENTAUR R/B 1.3 15:25:12 10° SW 15:29:41 89° WNW 15:30:07 72° NNE
SL-8 Rocket 4.4 15:26:26 10° SSW 15:32:39 56° W 15:35:29 32° NNW
Cosmos 1908 3.1 15:34:06 83° S 15:34:06 83° S 15:37:45 10° S
Cosmos 2082 Rocket 2.4 15:30:46 26° NW 15:34:02 69° WSW 15:39:48 10° SSE
NOSS 3-1 (C) 3.3 15:29:01 10° SW 15:35:10 59° WNW 15:36:23 47° NNW
SPOT 5 4.1 15:32:42 10° S 15:36:55 36° WSW 15:39:35 20° WNW
ERS-1 Rocket 3.5 15:32:53 10° S 15:37:54 57° WSW 15:40:02 32° NW
Cosmos 2360 Rocket 4.3 15:35:03 10° S 15:39:03 19° SE 15:43:01 10° E
NOSS 3-1 (A) 3.2 15:35:32 10° SW 15:42:00 79° SE 15:43:37 48° NE
Cosmos 1821 Rocket 4.0 15:36:56 10° S 15:43:24 84° E 15:45:31 46° NNE
Cosmos 2278 4.1 15:39:05 10° SSW 15:44:43 55° ESE 15:46:35 39° ENE
Cosmos 2221 Rocket 3.7 15:40:32 10° S 15:45:02 59° E 15:45:22 57° ENE
Cosmos 1340 3.5 15:47:14 40° SE 15:47:14 40° SE 15:49:54 10° SSE
BREEZE-M DEB (TANK) 4.4 15:45:55 10° WSW 15:48:35 38° S 15:55:02 10° ESE
Cosmos 1300 3.9 15:49:31 32° ESE 15:49:31 32° ESE 15:52:10 10° SSE
Cosmos 1697 Rocket 4.2 15:46:33 10° SW 15:50:59 24° W 15:52:39 21° NW
Cosmos 1867 4.0 15:46:20 10° SW 15:51:28 45° WNW 15:52:12 42° NW
Cosmos 1378 Rocket 3.4 15:47:21 10° S 15:51:50 77° E 15:52:04 74° ENE
ATLAS 3B R/B 2.5 15:46:49 10° SW 15:53:03 64° WNW 15:54:39 48° N
Cosmos 44 Rocket 4.3 15:50:47 18° WNW 15:53:54 42° SW 15:58:20 10° SSE
Cosmos 1733 Rocket 3.6 15:57:45 46° WNW 15:58:25 50° W 16:02:43 10° S
Cosmos 158 Rocket 4.1 15:56:06 10° SSW 16:00:56 56° WNW 16:01:29 52° NW
Meteor 1-22 Rocket 4.5 16:02:12 41° NW 16:03:50 58° WSW 16:09:13 10° S
SJ 16-02 4.1 16:02:37 10° W 16:04:42 13° SW 16:06:47 10° SSW
Cosmos 2322 Rocket 3.3 15:59:38 10° S 16:04:50 36° ESE 16:07:16 25° ENE
Cosmos 1025 Rocket 4.2 16:01:52 10° S 16:05:51 32° ESE 16:06:08 32° E
Cosmos 1356 Rocket 3.6 16:03:09 10° SSW 16:07:25 61° W 16:07:25 61° W
Cosmos 1758 3.4 16:08:25 69° SW 16:08:25 69° SW 16:12:12 10° S
Cosmos 1908 Rocket 3.6 16:09:13 67° E 16:09:13 67° E 16:13:45 10° SSE
Cosmos 1400 Rocket 3.6 16:05:58 10° SSW 16:09:31 42° W 16:09:31 42° W
Cosmos 1777 Rocket 4.0 16:08:38 54° NW 16:09:48 76° WSW 16:15:05 10° SSE
Cosmos 2098 Rocket 3.6 16:12:05 39° SE 16:12:05 39° SE 16:15:00 10° SSE
Cosmos 304 Rocket 4.2 16:12:08 46° E 16:12:08 46° E 16:16:38 10° SSE
H-2A R/B 4.1 16:11:39 17° WNW 16:12:19 18° W 16:15:20 10° SW
Meteor 2-5 Rocket 3.9 16:07:13 10° SSW 16:12:47 59° W 16:13:57 48° NW
Cosmos 2237 4.5 16:07:47 10° SSW 16:13:33 64° ESE 16:15:08 45° ENE
ISS -0.8 16:13:12 10° SW 16:15:43 19° S 16:18:14 10° SE
Lacrosse 5 rocket 3.7 16:14:08 10° W 16:14:25 11° W 16:14:25 11° W
USA 81 4.1 16:16:06 58° NNW 16:17:04 74° W 16:22:26 10° S
Cosmos 990 Rocket 4.3 16:20:39 48° ENE 16:20:53 49° ENE 16:25:58 10° SSE
SL-24 R/B 4.2 16:21:53 65° E 16:22:10 67° ESE 16:26:50 10° S
Cosmos 1953 3.1 16:24:43 42° ESE 16:24:43 42° ESE 16:28:00 10° SSE
ARIANE 5 R/B 2.5 16:19:41 10° SSE 16:24:06 80° E 16:24:06 80° E
H-2A R/B 2.7 16:20:42 10° S 16:25:08 66° WSW 16:25:23 64° W
Cosmos 1980 Rocket 3.5 16:21:18 10° SW 16:25:56 26° WNW 16:26:46 25° WNW
Cosmos 1300 Rocket 4.5 16:26:41 38° E 16:26:41 38° E 16:30:41 10° SSE
Cosmos 1408 3.7 16:23:31 10° SSW 16:25:39 37° SSW 16:25:39 37° SSW
Cosmos 773 Rocket 4.4 16:21:50 10° SSW 16:26:58 47° WNW 16:27:29 46° WNW
Meteor 1-16 Rocket 4.2 16:27:27 60° NNE 16:28:27 74° E 16:34:18 10° SSE
SL-24 DEB 4.4 16:23:55 10° SSE 16:28:32 59° E 16:28:37 59° E
Terra 3.9 16:27:40 10° SSW 16:31:08 20° WSW 16:33:40 14° WNW
Meteor 1-24 Rocket 4.3 16:27:02 10° SSW 16:32:02 40° W 16:32:55 37° WNW
GP-B 3.5 16:28:34 10° S 16:32:56 51° W 16:33:11 50° W
Aureole 1 Rocket 4.4 16:32:17 45° N 16:35:03 75° ENE 16:42:21 10° SSE
SL-16 R/B 2.1 16:30:20 10° SSW 16:36:06 89° WNW 16:37:09 61° NNE
Spot 2 4.2 16:31:04 10° SSE 16:36:12 88° WSW 16:36:43 73° NNW
Meteor 2-10 Rocket 4.0 16:35:48 48° NW 16:37:18 65° WSW 16:43:10 10° S
Cosmos 1633 4.1 16:34:51 10° S 16:36:29 29° S 16:36:29 29° S
Cosmos 1703 4.3 16:35:27 10° SSW 16:38:26 36° WSW 16:38:26 36° WSW
IDEFIX/ARIANE 42P 4.4 16:39:37 16° ENE 16:42:19 23° ESE 16:46:26 10° SSE
CZ-2D R/B 3.9 16:42:57 16° ENE 16:45:54 25° ESE 16:50:21 10° S
Cosmos 1934 Rocket 4.0 16:39:47 10° SSW 16:46:07 73° W 16:47:36 53° NNW
Cosmos 2333 Rocket 3.0 16:41:58 10° SSW 16:47:27 46° ESE 16:49:51 30° ENE
Cosmos 1455 3.4 16:49:09 33° ESE 16:49:09 33° ESE 16:51:45 10° SSE
Cosmos 332 Rocket 4.0 16:48:59 54° ENE 16:48:59 54° ENE 16:53:43 10° SSE
Cosmos 1892 3.3 16:46:28 10° S 16:49:22 50° SSE 16:49:22 50° SSE
ADEOS II 4.4 16:46:53 10° E 16:50:15 17° ESE 16:53:38 10° SSE
Cosmos 1937 Rocket 4.4 16:53:44 34° ENE 16:53:59 34° E 16:58:39 10° SE
Cosmos 1315 Rocket 3.3 16:55:36 10° SSW 16:59:08 54° WSW 16:59:08 54° WSW
Cosmos 1898 Rocket 3.6 17:02:10 55° NE 17:02:40 58° ENE 17:07:56 10° SSE
Cosmos 371 Rocket 4.1 17:03:31 37° W 17:04:34 43° WSW 17:09:17 10° S
MOS 1 Rocket 4.3 17:00:10 10° S 17:05:07 41° WSW 17:06:21 35° WNW
Cosmos 2084 4.0 17:13:27 53° W 17:14:08 59° SW 17:18:51 10° SSE
Cosmos 1727 Rocket 4.1 17:12:52 47° NNE 17:14:34 66° E 17:20:52 10° SSE
Cosmos 923 Rocket 4.5 17:09:44 10° SSW 17:14:58 56° ESE 17:16:34 40° ENE
Cosmos 1605 Rocket 4.0 17:09:28 10° SSW 17:15:38 71° W 17:17:06 52° NNW
Cosmos 1782 Rocket 4.4 17:21:26 38° W 17:21:44 39° WSW 17:26:00 10° S
Cosmos 2219 Rocket 2.8 17:16:27 10° SSW 17:21:58 52° ESE 17:24:39 29° ENE
USA 229 DEB 3.6 17:15:40 10° SW 17:22:00 52° WNW 17:22:47 49° NW
USA 229 3.6 17:15:42 10° SW 17:22:03 53° WNW 17:22:50 49° NW
ATLAS 5 CENTAUR R/B 3.9 17:17:25 10° SSW 17:22:37 29° SE 17:26:56 10° E
Cosmos 2360 Rocket 2.1 17:17:59 10° SSW 17:23:42 77° WNW 17:24:47 59° N
Meteor 1-4 Rocket 3.6 17:23:34 10° S 17:25:44 39° SSW 17:25:44 39° SSW
Timation 1 Rocket 4.4 17:25:18 46° NW 17:27:04 70° WSW 17:33:06 10° SSE
Cosmos 1680 Rocket 4.1 17:22:05 10° SSW 17:27:22 54° ESE 17:29:25 34° NE
In-Cosmos 22 Rocket 4.2 17:24:33 10° S 17:30:24 80° E 17:31:53 51° NNE
Resurs 1-4 Rocket 2.4 17:30:48 41° NE 17:32:29 62° ESE 17:37:45 10° S
Cosmos 1825 3.3 17:31:56 10° SSW 17:34:25 33° SW 17:34:25 33° SW
SAR-Lupe-4 3.9 17:40:24 67° SSE 17:40:24 67° SSE 17:43:39 10° S
Cosmos 1975 Rocket 3.9 17:35:53 10° SSW 17:39:51 38° W 17:39:51 38° W
Cosmos 292 Rocket 4.2 17:40:45 47° NE 17:41:20 49° ENE 17:46:02 10° SSE
Cosmos 2112 Rocket 4.3 17:38:39 10° SSW 17:44:01 64° ESE 17:46:10 36° NE
Cosmos 2100 Rocket 4.0 17:40:07 10° S 17:46:24 77° E 17:48:49 40° NNE
MSX 3.9 17:45:13 39° NNE 17:47:28 74° ESE 17:53:16 10° S
Cosmos 2322 Rocket 2.9 17:43:45 10° SW 17:48:49 35° WNW 17:49:02 35° WNW
ALOS 2 3.2 17:47:38 10° S 17:51:54 45° WSW 17:52:26 42° W
ISS -1.0 17:50:37 10° SW 17:53:20 21° SSE 17:56:02 10° ESE
Cosmos 1459 Rocket 4.1 17:47:11 10° S 17:53:40 79° E 17:56:19 38° NNE
Cosmos 858 Rocket 4.4 17:56:12 55° NW 17:57:21 79° WSW 18:02:40 10° SSE
Okean 1 Rocket 3.4 17:56:48 51° NE 17:57:31 59° E 18:01:55 10° SSE
Cosmos 1536 Rocket 3.5 17:55:05 10° S 17:59:39 90° NW 18:00:14 67° N
NPP 3.6 18:00:58 50° NNW 18:02:17 68° WNW 18:07:45 10° SSW
Cosmos 1802 Rocket 4.1 17:57:16 10° S 18:03:39 74° E 18:06:37 33° NNE
Cosmos 921 Rocket 2.8 18:00:01 10° SSW 18:04:16 88° WNW 18:04:40 73° N
Cosmos 2297 Rocket 3.5 18:06:27 23° NE 18:08:36 30° ENE 18:13:31 10° SE
Sich 1 Rocket 3.9 18:08:52 50° WNW 18:09:33 56° W 18:14:09 10° S
USA 276 4.0 18:11:03 22° E 18:11:03 22° E 18:12:30 10° ESE
Okean 2 Rocket 3.3 18:10:27 52° WNW 18:11:00 56° W 18:15:24 10° S
SL-16 R/B 4.3 18:17:13 10° WSW 18:19:00 12° W 18:19:00 12° W
IDEFIX/ARIANE 42P 2.9 18:20:23 42° NW 18:21:29 49° W 18:26:40 10° SSW
Cosmos 1455 4.4 18:23:17 13° WSW 18:23:21 13° WSW 18:25:10 10° SW
CZ-2D R/B 2.5 18:24:14 40° NW 18:25:35 48° W 18:30:57 10° SSW
ADEOS II 2.1 18:27:29 41° N 18:29:18 69° WNW 18:34:37 10° SSW
SL-27 R/B 4.4 18:30:19 16° WSW 18:30:19 16° WSW 18:32:19 10° SSW
COSMOS 2428 2.6 18:24:45 10° SSW 18:30:31 87° WNW 18:33:58 25° NNE
Cosmos 2333 Rocket 3.3 18:26:45 10° SW 18:31:26 27° WNW 18:31:49 27° WNW
CZ-2C R/B 3.8 18:26:56 16° NNE 18:31:29 59° ESE 18:37:16 10° S
Cosmos 1242 Rocket 2.9 18:28:16 10° SSW 18:30:59 46° WSW 18:30:59 46° WSW
Cosmos 1461 3.0 18:27:29 10° SSW 18:31:46 78° ESE 18:34:25 23° NE
Cosmos 1455 Rocket 3.5 18:32:27 36° NNE 18:33:57 56° E 18:38:16 10° SSE
Meteor 2-15 4.5 18:30:41 10° S 18:36:53 81° E 18:40:48 24° NNE
Cosmos 2061 Rocket 4.0 18:31:40 10° S 18:37:58 86° E 18:41:52 25° N
Cosmos 2237 Rocket 3.3 18:33:16 10° SSW 18:38:47 45° ESE 18:44:15 10° NE
Cosmos 2016 Rocket 4.1 18:37:13 10° SSW 18:43:37 67° W 18:46:52 30° NNW
IRIDIUM 103 4.3 18:39:45 10° S 18:45:05 83° E 18:47:56 28° N
Cosmos 397 4.4 18:47:04 43° NNW 18:48:28 85° ENE 18:52:33 10° SSE
Cosmos 1346 Rocket 3.2 18:48:18 42° WNW 18:48:59 47° WSW 18:52:50 10° S
Helios 1A Rocket 4.1 18:47:14 10° S 18:50:37 28° WSW 18:51:28 25° W
Cosmos 2322 4.2 18:52:20 10° SW 18:57:43 42° WNW 18:59:53 30° NNW
Cosmos 2233 Rocket 4.0 18:52:09 10° S 18:58:32 79° W 19:02:49 22° N
IRIDIUM 106 4.4 18:58:06 10° S 19:03:23 68° W 19:06:14 27° NNW
Cosmos 2227 Rocket 2.8 19:01:52 21° N 19:05:29 49° ENE 19:10:59 10° SE
Cosmos 2219 Rocket 3.4 19:01:11 10° SW 19:05:30 23° W 19:06:18 22° WNW
FAST Rocket 3.8 19:02:42 10° S 19:05:36 83° W 19:05:57 63° N
ALOS 2.2 19:03:44 26° N 19:06:24 73° WNW 19:11:08 10° SSW
USA 215 3.2 19:00:20 10° NE 19:06:56 78° NW 19:13:35 10° SW
ATLAS 5 CENTAUR R/B 2.0 19:01:48 10° SW 19:07:09 49° WNW 19:09:31 25° N
Thor Agena Rocket 3.5 19:03:04 17° NNE 19:07:09 89° W 19:12:29 10° SSW
Cosmos 1544 Rocket 4.0 19:09:45 21° NNE 19:12:35 59° E 19:16:58 10° SSE
Resurs 1-4 Rocket 3.7 19:11:51 17° WNW 19:12:42 17° W 19:16:08 10° SW
Meteor 2-15 Rocket 4.4 19:09:20 10° SSW 19:15:28 69° W 19:20:06 18° N
Meteor 2-19 Rocket 4.4 19:12:52 20° N 19:17:15 89° E 19:23:29 10° S
MOZ.5/SAFIR/RUBIN 5/SL-8 3.8 19:15:04 10° SSE 19:19:47 85° ENE 19:22:46 22° NNW
Cosmos 1626 Rocket 4.1 19:15:49 10° S 19:20:17 58° E 19:24:39 10° NNE
Cosmos 2228 4.1 19:18:50 12° NNE 19:22:30 41° E 19:26:34 10° SSE
Cosmos 2084 Rocket 3.6 19:21:04 10° SW 19:25:52 83° WNW 19:30:35 10° NNE
Cosmos 1048 Rocket 4.1 19:20:43 10° SSW 19:26:00 56° WNW 19:30:21 14° N
Cosmos 2285 Rocket 4.3 19:19:44 10° SSW 19:26:06 71° ESE 19:32:24 10° NNE
Cosmos 1607 4.1 19:23:52 20° NNW 19:28:16 66° ENE 19:34:22 10° SE
ISS -3.5 19:27:06 10° SW 19:30:31 71° SSE 19:33:54 10° ENE
NOSS 0 Rocket 4.2 19:25:14 10° SW 19:31:11 47° WNW 19:37:05 10° N
IRS-1D 3.6 19:25:55 10° NNE 19:31:16 86° WNW 19:36:44 10° SSW
NOSS 3-4 (A) 4.4 19:25:13 10° SSW 19:32:14 55° SE 19:38:15 10° NE
NOSS 3-4 (C) 4.4 19:25:10 10° SSW 19:32:16 55° SE 19:38:23 10° NE
SL-16 R/B 4.2 19:26:59 10° SE 19:32:21 30° E 19:37:40 10° NNE
USA 305 4.4 19:31:29 10° S 19:32:35 14° SSE 19:33:39 10° ESE
YAOGAN 6 3.3 19:31:21 10° NNE 19:34:38 50° ESE 19:38:00 10° S
Cosmos 2298 Rocket 4.0 19:35:14 19° NNW 19:39:11 87° WSW 19:44:35 10° SSE
SL-16 R/B 3.5 19:34:17 10° SSW 19:39:45 43° ESE 19:45:10 10° NE
Lacrosse 5 3.9 19:37:52 10° NNE 19:41:29 20° ENE 19:45:08 10° ESE
USA 276 3.4 19:41:50 13° W 19:44:17 35° SSW 19:47:11 10° SE
PAYLOAD A 3.8 19:40:26 10° N 19:45:09 80° WNW 19:50:00 10° SSW
USA 281 3.8 19:42:44 10° NE 19:49:11 63° ESE 19:55:44 10° SSW
Cosmos 2297 Rocket 3.0 19:48:15 16° WNW 19:52:28 41° WSW 19:57:51 10° SSE
Cosmos 1606 3.6 19:50:40 10° NNE 19:54:11 44° E 19:57:44 10° SSE
Cosmos 1125 Rocket 4.2 19:52:45 16° NW 19:56:38 41° WSW 20:01:37 10° S
H-2A R/B 4.2 19:53:24 10° NE 19:58:05 31° ESE 20:02:51 10° S
Cosmos 1980 4.2 19:53:40 10° SW 19:58:57 40° WNW 20:04:11 10° N
USA 307 2.3 19:56:53 10° SW 19:59:00 46° SE 20:01:03 10° ENE
Cosmos 1606 Rocket 4.5 19:57:23 10° NNE 20:01:35 48° E 20:05:52 10° SSE
Cosmos 2034 Rocket 4.3 19:56:57 10° S 20:03:25 75° E 20:09:49 10° NNE
Envisat 3.2 19:59:21 10° N 20:04:19 51° W 20:09:21 10° SSW
ARIANE 5 R/B 4.3 19:59:50 10° NE 20:04:31 36° ESE 20:09:12 10° S
COBE Rocket 4.5 20:03:15 11° NNW 20:07:22 36° W 20:11:47 10° SSW
CBERS-1 4.0 20:03:18 10° NNE 20:08:26 87° WNW 20:13:39 10° SSW
Cosmos 2219 3.3 20:03:27 11° NNW 20:08:56 84° WSW 20:14:46 10° SSE
CZ-2C R/B 2.9 20:05:25 10° N 20:10:13 42° W 20:14:56 10° SSW
Cosmos 724 4.3 20:07:58 12° NW 20:13:22 79° WSW 20:19:18 10° SSE
Cosmos 1825 Rocket 4.2 20:10:31 10° S 20:15:01 60° E 20:19:25 10° NNE
USA 306 2.5 20:12:37 10° WSW 20:16:14 60° NW 20:20:02 10° NE
Cosmos 2082 3.9 20:13:46 10° NNW 20:19:29 76° ENE 20:25:16 10° SSE
Cosmos 2058 4.1 20:17:10 10° SSW 20:20:36 25° W 20:24:01 10° NW
Tsikada Rocket 4.3 20:15:06 10° N 20:21:28 76° E 20:27:58 10° S
Cosmos 2237 Rocket 3.1 20:17:47 10° SW 20:22:35 28° WNW 20:27:20 10° NNW
Meteor 1-28 Rocket 3.1 20:21:55 10° S 20:25:36 75° WSW 20:29:13 10° NNW
Cosmos 1758 Rocket 4.1 20:23:15 10° SSW 20:27:29 41° W 20:31:38 10° NNW
Cosmos 2263 Rocket 2.4 20:24:16 10° NNW 20:29:58 80° ENE 20:35:43 10° SSE
SL-8 R/B 3.7 20:25:40 10° WSW 20:30:33 82° NNW 20:35:23 10° ENE
Cosmos 1869 4.0 20:27:39 10° NNW 20:31:24 39° WSW 20:35:14 10° S
Cosmos 614 Rocket 3.9 20:26:53 10° SSW 20:32:03 79° WNW 20:37:12 10° NNE
Cosmos 405 Rocket 2.9 20:29:55 10° N 20:33:30 66° E 20:37:09 10° SSE
BREEZE-M DEB (TANK) 3.1 20:34:22 10° W 20:36:22 24° NW 20:38:58 10° NNE
